GW0993 Weather Reports


time (UTC)temp
C
wind
direction
speed
KPH
gust
KPH
rain 1hr
cm
rain 24hr
cm
rain mn
cm
humidity
%
barometer
mb
20260505125011 11 178 3.2 8.0 0.00 0.00 0.00 87 1013.5
20260505124530 11 233 3.2 9.7 0.00 0.00 0.00 87 1013.3
20260505124010 11 198 4.8 9.7 0.00 0.00 0.00 87 1013.2
20260505123514 11 210 3.2 9.7 0.00 0.00 0.00 87 1013.1
20260505123044 11 209 4.8 11.3 0.00 0.00 0.00 87 1013.1
20260505122512 11 224 4.8 11.3 0.00 0.00 0.00 87 1013.0
20260505122018 11 195 3.2 8.0 0.00 0.00 0.00 87 1012.9
20260505121528 11 205 3.2 8.0 0.00 0.00 0.00 87 1012.9
20260505121013 11 200 1.6 8.0 0.00 0.00 0.00 87 1012.8
20260505120513 11 211 3.2 8.0 0.00 0.00 0.00 87 1012.7
20260505120037 11 204 3.2 11.3 0.00 0.00 0.00 87 1012.7
20260505115512 11 207 1.6 11.3 0.00 0.00 0.00 86 1012.7
20260505115012 11 198 3.2 9.7 0.00 0.00 0.00 86 1012.4
20260505114531 11 198 3.2 9.7 0.00 0.00 0.00 86 1012.5
20260505114011 11 192 3.2 8.0 0.00 0.00 0.00 85 1012.4
20260505113512 11 221 0.0 8.0 0.00 0.00 0.00 85 1012.5
20260505113029 11 221 3.2 8.0 0.00 0.00 0.00 85 1012.4
20260505112515 12 208 3.2 8.0 0.00 0.00 0.00 84 1012.4
20260505112011 12 223 1.6 11.3 0.00 0.00 0.00 84 1012.4
20260505111533 12 196 3.2 11.3 0.00 0.00 0.00 84 1012.3
20260505111013 12 218 1.6 8.0 0.00 0.00 0.00 83 1012.2
20260505110510 12 194 3.2 8.0 0.00 0.00 0.00 83 1012.2
20260505102013 11 213 1.6 4.8 0.00 0.00 0.00 79 1011.8
20260505101013 11 229 1.6 3.2 0.00 0.00 0.00 79 1011.7
20260505100512 12 0 1.6 3.2 0.00 0.00 0.00 79 1011.6
20260505100034 12 0 0.0 3.2 0.00 0.00 0.00 79 1011.6
20260505095517 12 0 0.0 3.2 0.00 0.00 0.00 79 1011.6
20260505095016 12 0 0.0 3.2 0.00 0.00 0.00 79 1011.6
20260505094532 12 221 0.0 3.2 0.00 0.00 0.00 79 1011.7
20260505094013 12 0 0.0 3.2 0.00 0.00 0.00 79 1011.5
20260505093512 12 0 0.0 3.2 0.00 0.00 0.00 79 1011.5
20260505093031 12 221 0.0 3.2 0.00 0.00 0.00 78 1011.6
20260505092513 12 0 0.0 8.0 0.00 0.00 0.00 78 1011.5
20260505092013 12 221 3.2 8.0 0.00 0.00 0.00 79 1011.5
20260505091528 12 215 3.2 8.0 0.00 0.00 0.00 79 1011.5
20260505091009 12 204 3.2 8.0 0.00 0.00 0.00 79 1011.5
20260505090511 12 217 1.6 8.0 0.00 0.00 0.00 79 1011.4
20260505090029 12 209 1.6 8.0 0.00 0.00 0.00 79 1011.3
20260505085512 12 222 1.6 4.8 0.00 0.00 0.00 78 1011.2
20260505085010 12 250 1.6 6.4 0.00 0.00 0.00 78 1011.0
20260505084534 12 186 1.6 6.4 0.00 0.00 0.00 78 1010.9
20260505084010 13 233 1.6 4.8 0.00 0.00 0.00 78 1010.8
20260505083517 13 240 0.0 12.9 0.00 0.00 0.00 78 1010.7
20260505083030 13 211 4.8 12.9 0.00 0.00 0.00 78 1010.7
20260505082515 13 217 3.2 9.7 0.00 0.00 0.00 78 1010.6
20260505082012 13 218 3.2 9.7 0.00 0.00 0.00 78 1010.7
20260505081529 13 215 1.6 9.7 0.00 0.00 0.00 78 1010.6
20260505081013 13 217 1.6 9.7 0.00 0.00 0.00 78 1010.6
20260505080517 13 211 1.6 6.4 0.00 0.00 0.00 78 1010.6
20260505080030 13 224 1.6 6.4 0.00 0.00 0.00 78 1010.6
20260505075513 13 238 1.6 4.8 0.00 0.00 0.00 78 1010.4
20260505075012 13 231 1.6 3.2 0.00 0.00 0.00 78 1010.3
20260505074534 13 240 0.0 3.2 0.00 0.00 0.00 78 1010.3
20260505074014 13 240 0.0 3.2 0.00 0.00 0.00 77 1010.3
20260505073515 13 217 0.0 3.2 0.00 0.00 0.00 77 1010.3
20260505073029 13 217 0.0 3.2 0.00 0.00 0.00 77 1010.2
20260505072510 13 0 0.0 3.2 0.00 0.00 0.00 77 1010.1
20260505072011 13 217 0.0 1.6 0.00 0.00 0.00 76 1010.2
20260505071528 14 0 0.0 6.4 0.00 0.00 0.00 76 1010.0
20260505071014 14 0 0.0 6.4 0.00 0.00 0.00 76 1009.9
20260505070515 14 213 1.6 6.4 0.00 0.00 0.00 76 1009.9
20260505070031 14 213 0.0 3.2 0.00 0.00 0.00 76 1009.9
20260505065510 14 213 0.0 6.4 0.00 0.00 0.00 76 1009.8
20260505065012 14 0 1.6 11.3 0.00 0.00 0.00 76 1009.7
20260505064533 15 198 3.2 11.3 0.00 0.00 0.00 76 1009.7
20260505064013 15 226 3.2 8.0 0.00 0.00 0.00 76 1009.7
20260505063509 15 191 1.6 6.4 0.00 0.00 0.00 76 1009.7
20260505063027 15 245 1.6 6.4 0.00 0.00 0.00 76 1009.7
20260505062511 15 235 1.6 4.8 0.00 0.00 0.00 76 1009.7
20260505062013 15 249 0.0 3.2 0.00 0.00 0.00 76 1009.5
20260505061527 15 246 1.6 3.2 0.00 0.00 0.00 76 1009.5
20260505061010 15 246 1.6 4.8 0.00 0.00 0.00 76 1009.5
20260505060513 15 0 0.0 4.8 0.00 0.00 0.00 76 1009.4
20260505060026 15 246 1.6 4.8 0.00 0.00 0.00 75 1009.5
20260505055514 15 211 1.6 4.8 0.00 0.00 0.00 75 1009.4
20260505055014 15 223 1.6 4.8 0.00 0.00 0.00 75 1009.4
20260505054543 15 236 0.0 4.8 0.00 0.00 0.00 74 1009.4
20260505054014 15 236 1.6 4.8 0.00 0.00 0.00 74 1009.3
20260505053516 15 236 1.6 4.8 0.00 0.00 0.00 73 1009.3
20260505053030 15 0 1.6 3.2 0.00 0.00 0.00 72 1009.3
20260505052512 16 0 0.0 3.2 0.00 0.00 0.00 71 1009.4
20260505052010 16 219 0.0 1.6 0.00 0.00 0.00 70 1009.3
20260505051530 16 219 0.0 1.6 0.00 0.00 0.00 69 1009.4
20260505051013 16 0 0.0 1.6 0.00 0.00 0.00 68 1009.3
20260505050513 16 0 0.0 1.6 0.00 0.00 0.00 67 1009.3
20260505041531 18 0 0.0 0.0 0.00 0.00 0.00 58 1008.5
20260505041013 18 0 0.0 0.0 0.00 0.00 0.00 57 1008.5
20260505040511 18 0 0.0 0.0 0.00 0.00 0.00 55 1008.5
20260505040032 19 0 0.0 3.2 0.00 0.00 0.00 54 1008.5
20260505035513 19 0 0.0 3.2 0.00 0.00 0.00 53 1008.4
20260505035012 20 0 0.0 1.6 0.00 0.00 0.00 52 1008.3
20260505034528 20 0 0.0 3.2 0.00 0.00 0.00 51 1008.3
20260505034012 20 0 0.0 4.8 0.00 0.00 0.00 50 1008.2
20260505033512 20 0 1.6 4.8 0.00 0.00 0.00 49 1008.2
20260505033030 21 0 1.6 6.4 0.00 0.00 0.00 49 1008.2
20260505032511 21 215 1.6 6.4 0.00 0.00 0.00 48 1008.1
20260505032011 21 200 1.6 4.8 0.00 0.00 0.00 47 1008.2
20260505031529 21 224 1.6 6.4 0.00 0.00 0.00 47 1008.1
20260505031012 21 208 3.2 11.3 0.00 0.00 0.00 47 1008.1
20260505030513 21 212 4.8 11.3 0.00 0.00 0.00 47 1008.0
20260505030042 22 206 3.2 9.7 0.00 0.00 0.00 46 1008.1
20260505025515 22 209 3.2 12.9 0.00 0.00 0.00 46 1008.1
20260505025011 22 205 6.4 14.5 0.00 0.00 0.00 46 1008.1
20260505024527 22 212 8.0 14.5 0.00 0.00 0.00 46 1008.1
20260505024012 22 201 4.8 12.9 0.00 0.00 0.00 46 1008.2
20260505023512 22 215 4.8 12.9 0.00 0.00 0.00 46 1008.1
20260505023032 22 217 6.4 12.9 0.00 0.00 0.00 46 1008.2
20260505022510 22 225 6.4 16.1 0.00 0.00 0.00 47 1008.2
20260505022011 22 230 9.7 16.1 0.00 0.00 0.00 47 1008.2
20260505021531 23 221 9.7 16.1 0.00 0.00 0.00 47 1008.3
20260505021012 23 198 6.4 14.5 0.00 0.00 0.00 48 1008.3
20260505020511 23 237 4.8 19.3 0.00 0.00 0.00 48 1008.4
20260505020029 23 219 8.0 19.3 0.00 0.00 0.00 47 1008.4
20260505015512 23 204 8.0 17.7 0.00 0.00 0.00 48 1008.4
20260505015012 24 200 9.7 17.7 0.00 0.00 0.00 47 1008.5
20260505014537 24 191 8.0 22.5 0.00 0.00 0.00 46 1008.5
20260505014011 24 217 11.3 22.5 0.00 0.00 0.00 46 1008.5
20260505013512 25 221 11.3 17.7 0.00 0.00 0.00 45 1008.5
20260505013027 25 193 6.4 16.1 0.00 0.00 0.00 46 1008.4
20260505012513 25 222 8.0 16.1 0.00 0.00 0.00 44 1008.4
20260505012014 25 161 8.0 16.1 0.00 0.00 0.00 44 1008.4
20260505011527 26 207 6.4 14.5 0.00 0.00 0.00 43 1008.4
20260505011012 25 210 6.4 14.5 0.00 0.00 0.00 44 1008.4
20260505010512 25 164 8.0 14.5 0.00 0.00 0.00 43 1008.4
20260505010029 26 221 8.0 16.1 0.00 0.00 0.00 42 1008.5
20260505005516 26 184 8.0 16.1 0.00 0.00 0.00 41 1008.5
20260505005013 26 196 6.4 14.5 0.00 0.00 0.00 41 1008.4
20260505004552 26 178 9.7 17.7 0.00 0.00 0.00 40 1008.3
20260505004009 26 201 9.7 17.7 0.00 0.00 0.00 39 1008.4
20260505003511 26 252 4.8 16.1 0.00 0.00 0.00 38 1008.4
20260505003027 26 213 8.0 16.1 0.00 0.00 0.00 36 1008.4
20260505002512 27 196 8.0 16.1 0.00 0.00 0.00 36 1008.4
20260505002013 27 219 4.8 12.9 0.00 0.00 0.00 37 1008.5
20260505001528 27 213 4.8 14.5 0.00 0.00 0.00 35 1008.6
20260505001012 27 202 9.7 14.5 0.00 0.00 0.00 36 1008.5
20260505000516 27 231 4.8 11.3 0.00 0.00 0.00 37 1008.6
20260505000033 27 195 4.8 16.1 0.00 0.00 0.00 38 1008.6
20260504235512 27 185 6.4 16.1 0.00 0.00 0.00 38 1008.6
20260504235012 26 228 3.2 16.1 0.00 0.00 0.00 39 1008.6
20260504234528 26 198 9.7 19.3 0.00 0.00 0.00 36 1008.7
20260504234012 26 209 9.7 19.3 0.00 0.00 0.00 37 1008.7
20260504233509 26 205 4.8 17.7 0.00 0.00 0.00 37 1008.7
20260504233028 26 167 6.4 12.9 0.00 0.00 0.00 38 1008.8
20260504232510 26 246 4.8 14.5 0.00 0.00 0.00 39 1008.8
20260504232014 26 190 6.4 17.7 0.00 0.00 0.00 39 1008.8
20260504231530 26 211 8.0 17.7 0.00 0.00 0.00 39 1008.8
20260504231014 26 213 3.2 12.9 0.00 0.00 0.00 39 1009.0
20260504230513 26 221 6.4 16.1 0.00 0.00 0.00 41 1009.0
20260504230028 26 246 8.0 19.3 0.00 0.00 0.00 40 1009.1
20260504225513 26 196 6.4 19.3 0.00 0.00 0.00 39 1009.1
20260504225011 26 242 3.2 19.3 0.00 0.00 0.00 43 1009.1
20260504224534 26 255 9.7 17.7 0.00 0.00 0.00 41 1009.2
20260504224011 26 196 4.8 17.7 0.00 0.00 0.00 38 1009.2
20260504223512 26 235 8.0 19.3 0.00 0.00 0.00 39 1009.2
20260504223026 26 194 11.3 19.3 0.00 0.00 0.00 38 1009.2
20260504222511 26 207 9.7 19.3 0.00 0.00 0.00 39 1009.2
20260504222010 26 207 9.7 19.3 0.00 0.00 0.00 41 1009.3
20260504221536 26 200 8.0 17.7 0.00 0.00 0.00 41 1009.3
20260504221011 26 248 4.8 17.7 0.00 0.00 0.00 43 1009.4
20260504220513 26 173 8.0 14.5 0.00 0.00 0.00 40 1009.3
20260504220029 26 257 3.2 14.5 0.00 0.00 0.00 43 1009.3
20260504215514 27 219 4.8 14.5 0.00 0.00 0.00 43 1009.3
20260504215015 26 205 4.8 16.1 0.00 0.00 0.00 42 1009.3
20260504214528 26 235 6.4 16.1 0.00 0.00 0.00 43 1009.3
20260504214012 26 212 3.2 11.3 0.00 0.00 0.00 40 1009.3
20260504213514 26 246 1.6 12.9 0.00 0.00 0.00 44 1009.4
20260504213036 26 227 4.8 12.9 0.00 0.00 0.00 40 1009.4
20260504212510 26 242 3.2 11.3 0.00 0.00 0.00 42 1009.4
20260504212011 26 233 3.2 11.3 0.00 0.00 0.00 41 1009.5
20260504211533 26 236 4.8 8.0 0.00 0.00 0.00 43 1009.5
20260504211012 25 266 3.2 14.5 0.00 0.00 0.00 41 1009.6
20260504210512 25 259 4.8 14.5 0.00 0.00 0.00 43 1009.5
20260504210026 26 248 3.2 8.0 0.00 0.00 0.00 44 1009.6
20260504205512 26 243 3.2 22.5 0.00 0.00 0.00 43 1009.6
20260504205015 26 221 4.8 22.5 0.00 0.00 0.00 44 1009.7
20260504204528 26 192 6.4 16.1 0.00 0.00 0.00 44 1009.7
20260504204011 26 238 3.2 20.9 0.00 0.00 0.00 48 1009.6
20260504203513 26 238 9.7 20.9 0.00 0.00 0.00 47 1009.7
20260504203033 25 234 3.2 9.7 0.00 0.00 0.00 50 1009.6
20260504202513 25 249 3.2 11.3 0.00 0.00 0.00 48 1009.8
20260504202010 25 242 3.2 9.7 0.00 0.00 0.00 48 1009.8
20260504201528 25 246 3.2 12.9 0.00 0.00 0.00 50 1009.8
20260504201009 25 265 4.8 16.1 0.00 0.00 0.00 50 1009.8
20260504200510 25 248 3.2 16.1 0.00 0.00 0.00 50 1009.8
20260504200030 25 203 4.8 11.3 0.00 0.00 0.00 48 1009.9
20260504195512 25 0 3.2 11.3 0.00 0.00 0.00 49 1009.8
20260504195012 25 251 3.2 11.3 0.00 0.00 0.00 50 1009.8
20260504194528 25 213 3.2 8.0 0.00 0.00 0.00 50 1009.9
20260504194012 25 250 3.2 6.4 0.00 0.00 0.00 50 1009.8
20260504193509 25 232 3.2 6.4 0.00 0.00 0.00 50 1009.8
20260504193027 26 248 1.6 14.5 0.00 0.00 0.00 52 1009.8
20260504192513 26 248 6.4 14.5 0.00 0.00 0.00 48 1009.9
20260504192018 26 196 4.8 14.5 0.00 0.00 0.00 51 1009.9
20260504191548 25 228 3.2 9.7 0.00 0.00 0.00 50 1009.8
20260504191013 25 205 3.2 9.7 0.00 0.00 0.00 49 1009.8
20260504190510 25 232 1.6 8.0 0.00 0.00 0.00 46 1009.8
20260504190028 26 271 3.2 11.3 0.00 0.00 0.00 44 1009.9
20260504185509 25 236 4.8 11.3 0.00 0.00 0.00 45 1009.9
20260504185013 25 249 1.6 6.4 0.00 0.00 0.00 44 1009.9
20260504184540 25 300 0.0 6.4 0.00 0.00 0.00 40 1009.9
20260504184015 26 221 1.6 6.4 0.00 0.00 0.00 43 1009.9
20260504183029 25 262 1.6 4.8 0.00 0.00 0.00 41 1010.0
20260504182517 25 94 1.6 6.4 0.00 0.00 0.00 41 1010.0
20260504182010 25 0 3.2 8.0 0.00 0.00 0.00 42 1009.9
20260504181533 25 0 1.6 8.0 0.00 0.00 0.00 43 1009.9
20260504181010 25 233 1.6 6.4 0.00 0.00 0.00 47 1009.8
20260504180512 24 192 3.2 6.4 0.00 0.00 0.00 48 1009.9
20260504180033 24 279 0.0 4.8 0.00 0.00 0.00 46 1010.0
20260504175510 24 5 1.6 4.8 0.00 0.00 0.00 47 1010.1
20260504175019 23 213 1.6 4.8 0.00 0.00 0.00 52 1010.0
20260504174530 23 5 0.0 6.4 0.00 0.00 0.00 46 1010.0
20260504174010 23 284 0.0 6.4 0.00 0.00 0.00 48 1010.0
20260504173512 23 0 0.0 4.8 0.00 0.00 0.00 48 1010.0
20260504173028 23 127 1.6 6.4 0.00 0.00 0.00 48 1010.0
20260504172512 22 360 1.6 6.4 0.00 0.00 0.00 48 1010.1
20260504172012 22 292 0.0 8.0 0.00 0.00 0.00 51 1010.0
20260504171526 22 344 3.2 8.0 0.00 0.00 0.00 50 1010.1
20260504171011 22 327 3.2 6.4 0.00 0.00 0.00 49 1010.1
20260504170513 22 319 1.6 4.8 0.00 0.00 0.00 52 1010.1
20260504151014 17 59 0.0 4.8 0.00 0.00 0.00 65 1010.4
20260504150516 17 59 1.6 4.8 0.00 0.00 0.00 68 1010.3
20260504141013 11 317 0.0 4.8 0.00 0.00 0.00 88 1009.9
20260504140509 11 317 0.0 4.8 0.00 0.00 0.00 89 1009.9